#datetime,building,power
2023-11-14T00:00:00,prt,26.01
2023-11-14T00:01:00,prt,26.69
2023-11-14T00:02:00,prt,26.70
2023-11-14T00:03:00,prt,27.13
2023-11-14T00:04:00,prt,28.91
2023-11-14T00:05:00,prt,28.47
2023-11-14T00:06:00,prt,26.07
2023-11-14T00:07:00,prt,25.14
2023-11-14T00:08:00,prt,25.39
2023-11-14T00:09:00,prt,24.23
2023-11-14T00:10:00,prt,24.49
2023-11-14T00:11:00,prt,23.61
2023-11-14T00:12:00,prt,22.74
2023-11-14T00:13:00,prt,26.56
2023-11-14T00:14:00,prt,24.26
2023-11-14T00:15:00,prt,25.11
2023-11-14T00:16:00,prt,23.68
2023-11-14T00:17:00,prt,23.20
2023-11-14T00:18:00,prt,23.70
2023-11-14T00:19:00,prt,23.77
2023-11-14T00:20:00,prt,24.57
2023-11-14T00:21:00,prt,26.87
2023-11-14T00:22:00,prt,26.54
2023-11-14T00:23:00,prt,24.35
2023-11-14T00:24:00,prt,23.75
2023-11-14T00:25:00,prt,26.07
2023-11-14T00:26:00,prt,26.34
2023-11-14T00:27:00,prt,26.54
2023-11-14T00:28:00,prt,25.82
2023-11-14T00:29:00,prt,26.24
2023-11-14T00:30:00,prt,21.90
2023-11-14T00:31:00,prt,21.25
2023-11-14T00:32:00,prt,20.80
2023-11-14T00:33:00,prt,21.63
2023-11-14T00:34:00,prt,19.32
2023-11-14T00:35:00,prt,19.66
2023-11-14T00:36:00,prt,20.70
2023-11-14T00:37:00,prt,22.49
2023-11-14T00:38:00,prt,21.57
2023-11-14T00:39:00,prt,20.42
2023-11-14T00:40:00,prt,19.19
2023-11-14T00:41:00,prt,22.07
2023-11-14T00:42:00,prt,22.46
2023-11-14T00:43:00,prt,27.19
2023-11-14T00:44:00,prt,26.48
2023-11-14T00:45:00,prt,25.64
2023-11-14T00:46:00,prt,25.42
2023-11-14T00:47:00,prt,24.82
2023-11-14T00:48:00,prt,23.65
2023-11-14T00:49:00,prt,20.95
2023-11-14T00:50:00,prt,20.22
2023-11-14T00:51:00,prt,21.49
2023-11-14T00:52:00,prt,22.10
2023-11-14T00:53:00,prt,21.86
2023-11-14T00:54:00,prt,20.78
2023-11-14T00:55:00,prt,21.02
2023-11-14T00:56:00,prt,21.07
2023-11-14T00:57:00,prt,20.80
2023-11-14T00:58:00,prt,20.69
2023-11-14T00:59:00,prt,19.04
2023-11-14T01:00:00,prt,22.58
2023-11-14T01:01:00,prt,22.62
2023-11-14T01:02:00,prt,22.84
2023-11-14T01:03:00,prt,22.85
2023-11-14T01:04:00,prt,23.27
2023-11-14T01:05:00,prt,21.03
2023-11-14T01:06:00,prt,22.06
2023-11-14T01:07:00,prt,21.87
2023-11-14T01:08:00,prt,20.37
2023-11-14T01:09:00,prt,20.96
2023-11-14T01:10:00,prt,29.07
2023-11-14T01:11:00,prt,25.31
2023-11-14T01:12:00,prt,20.36
2023-11-14T01:13:00,prt,19.73
2023-11-14T01:14:00,prt,20.12
2023-11-14T01:15:00,prt,24.62
2023-11-14T01:16:00,prt,24.32
2023-11-14T01:17:00,prt,22.32
2023-11-14T01:18:00,prt,25.17
2023-11-14T01:19:00,prt,24.00
2023-11-14T01:20:00,prt,25.58
2023-11-14T01:21:00,prt,28.05
2023-11-14T01:22:00,prt,25.59
2023-11-14T01:23:00,prt,26.77
2023-11-14T01:24:00,prt,21.21
2023-11-14T01:25:00,prt,18.78
2023-11-14T01:26:00,prt,19.67
2023-11-14T01:27:00,prt,19.45
2023-11-14T01:28:00,prt,19.11
2023-11-14T01:29:00,prt,19.88
2023-11-14T01:30:00,prt,17.76
2023-11-14T01:31:00,prt,17.80
2023-11-14T01:32:00,prt,18.90
2023-11-14T01:33:00,prt,23.41
2023-11-14T01:34:00,prt,26.03
2023-11-14T01:35:00,prt,25.91
2023-11-14T01:36:00,prt,25.28
2023-11-14T01:37:00,prt,28.26
2023-11-14T01:38:00,prt,25.30
2023-11-14T01:39:00,prt,21.56
2023-11-14T01:40:00,prt,20.18
2023-11-14T01:41:00,prt,20.65
2023-11-14T01:42:00,prt,24.55
2023-11-14T01:43:00,prt,24.43
2023-11-14T01:44:00,prt,23.86
2023-11-14T01:45:00,prt,23.63
2023-11-14T01:46:00,prt,21.79
2023-11-14T01:47:00,prt,22.16
2023-11-14T01:48:00,prt,21.76
2023-11-14T01:49:00,prt,20.86
2023-11-14T01:50:00,prt,19.67
2023-11-14T01:51:00,prt,18.54
2023-11-14T01:52:00,prt,19.45
2023-11-14T01:53:00,prt,18.04
2023-11-14T01:54:00,prt,17.86
2023-11-14T01:55:00,prt,21.86
2023-11-14T01:56:00,prt,21.22
2023-11-14T01:57:00,prt,21.27
2023-11-14T01:58:00,prt,23.03
2023-11-14T01:59:00,prt,23.23
2023-11-14T02:00:00,prt,26.32
2023-11-14T02:01:00,prt,23.81
2023-11-14T02:02:00,prt,23.24
2023-11-14T02:03:00,prt,22.43
2023-11-14T02:04:00,prt,22.71
2023-11-14T02:05:00,prt,22.38
2023-11-14T02:06:00,prt,22.10
2023-11-14T02:07:00,prt,22.19
2023-11-14T02:08:00,prt,22.48
2023-11-14T02:09:00,prt,19.26
2023-11-14T02:10:00,prt,19.43
2023-11-14T02:11:00,prt,18.89
2023-11-14T02:12:00,prt,18.38
2023-11-14T02:13:00,prt,19.75
2023-11-14T02:14:00,prt,19.69
2023-11-14T02:15:00,prt,20.23
2023-11-14T02:16:00,prt,19.83
2023-11-14T02:17:00,prt,21.22
2023-11-14T02:18:00,prt,21.52
2023-11-14T02:19:00,prt,20.25
2023-11-14T02:20:00,prt,20.51
2023-11-14T02:21:00,prt,19.14
2023-11-14T02:22:00,prt,19.10
2023-11-14T02:23:00,prt,22.19
2023-11-14T02:24:00,prt,22.27
2023-11-14T02:25:00,prt,23.11
2023-11-14T02:26:00,prt,26.29
2023-11-14T02:27:00,prt,26.94
2023-11-14T02:28:00,prt,30.10
2023-11-14T02:29:00,prt,30.47
2023-11-14T02:30:00,prt,29.36
2023-11-14T02:31:00,prt,22.72
2023-11-14T02:32:00,prt,21.84
2023-11-14T02:33:00,prt,21.05
2023-11-14T02:34:00,prt,23.94
2023-11-14T02:35:00,prt,23.18
2023-11-14T02:36:00,prt,22.65
2023-11-14T02:37:00,prt,22.70
2023-11-14T02:38:00,prt,21.35
2023-11-14T02:39:00,prt,20.34
2023-11-14T02:40:00,prt,22.89
2023-11-14T02:41:00,prt,21.15
2023-11-14T02:42:00,prt,20.08
2023-11-14T02:43:00,prt,19.16
2023-11-14T02:44:00,prt,19.53
2023-11-14T02:45:00,prt,19.57
2023-11-14T02:46:00,prt,22.90
2023-11-14T02:47:00,prt,21.90
2023-11-14T02:48:00,prt,19.30
2023-11-14T02:49:00,prt,24.35
2023-11-14T02:50:00,prt,24.52
2023-11-14T02:51:00,prt,23.91
2023-11-14T02:52:00,prt,23.58
2023-11-14T02:53:00,prt,20.62
2023-11-14T02:54:00,prt,20.31
2023-11-14T02:55:00,prt,20.98
2023-11-14T02:56:00,prt,27.59
2023-11-14T02:57:00,prt,22.71
2023-11-14T02:58:00,prt,22.08
2023-11-14T02:59:00,prt,23.44
2023-11-14T03:00:00,prt,21.83
2023-11-14T03:01:00,prt,21.20
2023-11-14T03:02:00,prt,21.04
2023-11-14T03:03:00,prt,20.71
2023-11-14T03:04:00,prt,19.26
2023-11-14T03:05:00,prt,19.89
2023-11-14T03:06:00,prt,20.45
2023-11-14T03:07:00,prt,20.22
2023-11-14T03:08:00,prt,21.31
2023-11-14T03:09:00,prt,18.34
2023-11-14T03:10:00,prt,19.31
2023-11-14T03:11:00,prt,22.17
2023-11-14T03:12:00,prt,21.63
2023-11-14T03:13:00,prt,25.53
2023-11-14T03:14:00,prt,26.10
2023-11-14T03:15:00,prt,24.95
2023-11-14T03:16:00,prt,25.37
2023-11-14T03:17:00,prt,24.92
2023-11-14T03:18:00,prt,25.74
2023-11-14T03:19:00,prt,22.46
2023-11-14T03:20:00,prt,22.63
2023-11-14T03:21:00,prt,22.87
2023-11-14T03:22:00,prt,22.18
2023-11-14T03:23:00,prt,22.40
2023-11-14T03:24:00,prt,22.38
2023-11-14T03:25:00,prt,24.01
2023-11-14T03:26:00,prt,24.63
2023-11-14T03:27:00,prt,23.99
2023-11-14T03:28:00,prt,23.02
2023-11-14T03:29:00,prt,21.41
2023-11-14T03:30:00,prt,23.46
2023-11-14T03:31:00,prt,22.20
2023-11-14T03:32:00,prt,22.44
2023-11-14T03:33:00,prt,21.61
2023-11-14T03:34:00,prt,25.42
2023-11-14T03:35:00,prt,24.20
2023-11-14T03:36:00,prt,24.00
2023-11-14T03:37:00,prt,23.39
2023-11-14T03:38:00,prt,20.62
2023-11-14T03:39:00,prt,23.15
2023-11-14T03:40:00,prt,24.49
2023-11-14T03:41:00,prt,26.24
2023-11-14T03:42:00,prt,24.16
2023-11-14T03:43:00,prt,23.90
2023-11-14T03:44:00,prt,24.45
2023-11-14T03:45:00,prt,23.29
2023-11-14T03:46:00,prt,23.63
2023-11-14T03:47:00,prt,24.56
2023-11-14T03:48:00,prt,22.35
2023-11-14T03:49:00,prt,20.03
2023-11-14T03:50:00,prt,19.59
2023-11-14T03:51:00,prt,20.81
2023-11-14T03:52:00,prt,22.03
2023-11-14T03:53:00,prt,22.05
2023-11-14T03:54:00,prt,22.29
2023-11-14T03:55:00,prt,22.31
2023-11-14T03:56:00,prt,25.24
2023-11-14T03:57:00,prt,27.89
2023-11-14T03:58:00,prt,26.42
2023-11-14T03:59:00,prt,26.09
2023-11-14T04:00:00,prt,22.84
2023-11-14T04:01:00,prt,25.87
2023-11-14T04:02:00,prt,28.62
2023-11-14T04:03:00,prt,31.89
2023-11-14T04:04:00,prt,31.19
2023-11-14T04:05:00,prt,31.69
2023-11-14T04:06:00,prt,31.64
2023-11-14T04:07:00,prt,31.74
2023-11-14T04:08:00,prt,29.88
2023-11-14T04:09:00,prt,29.11
2023-11-14T04:10:00,prt,30.69
2023-11-14T04:11:00,prt,34.01
2023-11-14T04:12:00,prt,34.64
2023-11-14T04:13:00,prt,34.16
2023-11-14T04:14:00,prt,37.68
2023-11-14T04:15:00,prt,34.45
2023-11-14T04:16:00,prt,32.24
2023-11-14T04:17:00,prt,31.81
2023-11-14T04:18:00,prt,34.51
2023-11-14T04:19:00,prt,35.30
2023-11-14T04:20:00,prt,34.64
2023-11-14T04:21:00,prt,34.33
2023-11-14T04:22:00,prt,32.03
2023-11-14T04:23:00,prt,30.59
2023-11-14T04:24:00,prt,30.39
2023-11-14T04:25:00,prt,34.23
2023-11-14T04:26:00,prt,34.12
2023-11-14T04:27:00,prt,34.07
2023-11-14T04:28:00,prt,33.83
2023-11-14T04:29:00,prt,38.56
2023-11-14T04:30:00,prt,36.43
2023-11-14T04:31:00,prt,37.79
2023-11-14T04:32:00,prt,35.97
2023-11-14T04:33:00,prt,33.96
2023-11-14T04:34:00,prt,32.54
2023-11-14T04:35:00,prt,31.61
2023-11-14T04:36:00,prt,33.98
2023-11-14T04:37:00,prt,34.04
2023-11-14T04:38:00,prt,34.86
2023-11-14T04:39:00,prt,36.94
2023-11-14T04:40:00,prt,36.31
2023-11-14T04:41:00,prt,36.69
2023-11-14T04:42:00,prt,37.00
2023-11-14T04:43:00,prt,37.88
2023-11-14T04:44:00,prt,36.31
2023-11-14T04:45:00,prt,33.10
2023-11-14T04:46:00,prt,33.52
2023-11-14T04:47:00,prt,39.70
2023-11-14T04:48:00,prt,40.48
2023-11-14T04:49:00,prt,43.06
2023-11-14T04:50:00,prt,45.25
2023-11-14T04:51:00,prt,43.67
2023-11-14T04:52:00,prt,43.30
2023-11-14T04:53:00,prt,40.91
2023-11-14T04:54:00,prt,38.64
2023-11-14T04:55:00,prt,39.19
2023-11-14T04:56:00,prt,43.81
2023-11-14T04:57:00,prt,47.14
2023-11-14T04:58:00,prt,43.26
2023-11-14T04:59:00,prt,35.89
2023-11-14T05:00:00,prt,34.96
2023-11-14T05:01:00,prt,35.07
2023-11-14T05:02:00,prt,37.27
2023-11-14T05:03:00,prt,36.60
2023-11-14T05:04:00,prt,37.30
2023-11-14T05:05:00,prt,37.51
2023-11-14T05:06:00,prt,36.53
2023-11-14T05:07:00,prt,38.07
2023-11-14T05:08:00,prt,38.00
2023-11-14T05:09:00,prt,38.45
2023-11-14T05:10:00,prt,40.20
2023-11-14T05:11:00,prt,39.22
2023-11-14T05:12:00,prt,38.40
2023-11-14T05:13:00,prt,38.29
2023-11-14T05:14:00,prt,37.97
2023-11-14T05:15:00,prt,37.04
2023-11-14T05:16:00,prt,33.32
2023-11-14T05:17:00,prt,32.86
2023-11-14T05:18:00,prt,32.29
2023-11-14T05:19:00,prt,32.32
2023-11-14T05:20:00,prt,31.88
2023-11-14T05:21:00,prt,34.43
2023-11-14T05:22:00,prt,38.32
2023-11-14T05:23:00,prt,45.63
2023-11-14T05:24:00,prt,43.92
2023-11-14T05:25:00,prt,43.75
2023-11-14T05:26:00,prt,42.14
2023-11-14T05:27:00,prt,41.47
2023-11-14T05:28:00,prt,41.94
2023-11-14T05:29:00,prt,43.32
2023-11-14T05:30:00,prt,41.91
2023-11-14T05:31:00,prt,37.11
2023-11-14T05:32:00,prt,37.41
2023-11-14T05:33:00,prt,37.99
2023-11-14T05:34:00,prt,40.10
2023-11-14T05:35:00,prt,40.05
2023-11-14T05:36:00,prt,39.99
2023-11-14T05:37:00,prt,41.70
2023-11-14T05:38:00,prt,43.11
2023-11-14T05:39:00,prt,43.40
2023-11-14T05:40:00,prt,41.75
2023-11-14T05:41:00,prt,41.62
2023-11-14T05:42:00,prt,43.40
2023-11-14T05:43:00,prt,56.03
2023-11-14T05:44:00,prt,48.57
2023-11-14T05:45:00,prt,67.06
2023-11-14T05:46:00,prt,64.80
2023-11-14T05:47:00,prt,67.17
2023-11-14T05:48:00,prt,65.04
2023-11-14T05:49:00,prt,63.49
2023-11-14T05:50:00,prt,63.09
2023-11-14T05:51:00,prt,61.97
2023-11-14T05:52:00,prt,79.04
2023-11-14T05:53:00,prt,69.65
2023-11-14T05:54:00,prt,68.26
2023-11-14T05:55:00,prt,66.23
2023-11-14T05:56:00,prt,64.38
2023-11-14T05:57:00,prt,61.66
2023-11-14T05:58:00,prt,63.27
2023-11-14T05:59:00,prt,62.16
2023-11-14T06:00:00,prt,66.70
2023-11-14T06:01:00,prt,73.00
2023-11-14T06:02:00,prt,70.52
2023-11-14T06:03:00,prt,70.79
2023-11-14T06:04:00,prt,72.51
2023-11-14T06:05:00,prt,72.23
2023-11-14T06:06:00,prt,77.52
2023-11-14T06:07:00,prt,67.07
2023-11-14T06:08:00,prt,67.28
2023-11-14T06:09:00,prt,66.97
2023-11-14T06:10:00,prt,72.60
2023-11-14T06:11:00,prt,65.35
2023-11-14T06:12:00,prt,62.68
2023-11-14T06:13:00,prt,66.49
2023-11-14T06:14:00,prt,78.07
2023-11-14T06:15:00,prt,75.45
2023-11-14T06:16:00,prt,80.19
2023-11-14T06:17:00,prt,71.85
2023-11-14T06:18:00,prt,76.63
2023-11-14T06:19:00,prt,75.48
2023-11-14T06:20:00,prt,81.21
2023-11-14T06:21:00,prt,76.32
2023-11-14T06:22:00,prt,72.98
2023-11-14T06:23:00,prt,76.23
2023-11-14T06:24:00,prt,75.15
2023-11-14T06:25:00,prt,71.72
2023-11-14T06:26:00,prt,73.82
2023-11-14T06:27:00,prt,77.89
2023-11-14T06:28:00,prt,82.12
2023-11-14T06:29:00,prt,80.02
2023-11-14T06:30:00,prt,90.26
2023-11-14T06:31:00,prt,79.83
2023-11-14T06:32:00,prt,76.93
2023-11-14T06:33:00,prt,80.70
2023-11-14T06:34:00,prt,68.29
2023-11-14T06:35:00,prt,68.47
2023-11-14T06:36:00,prt,71.79
2023-11-14T06:37:00,prt,68.63
2023-11-14T06:38:00,prt,61.88
2023-11-14T06:39:00,prt,59.65
2023-11-14T06:40:00,prt,67.13
2023-11-14T06:41:00,prt,69.33
2023-11-14T06:42:00,prt,71.59
2023-11-14T06:43:00,prt,73.72
2023-11-14T06:44:00,prt,75.86
2023-11-14T06:45:00,prt,78.03
2023-11-14T06:46:00,prt,68.90
2023-11-14T06:47:00,prt,66.57
2023-11-14T06:48:00,prt,59.90
2023-11-14T06:49:00,prt,61.04
2023-11-14T06:50:00,prt,70.15
2023-11-14T06:51:00,prt,67.37
2023-11-14T06:52:00,prt,80.74
2023-11-14T06:53:00,prt,93.32
2023-11-14T06:54:00,prt,83.05
2023-11-14T06:55:00,prt,81.51
2023-11-14T06:56:00,prt,76.16
2023-11-14T06:57:00,prt,64.92
2023-11-14T06:58:00,prt,63.32
2023-11-14T06:59:00,prt,63.91
2023-11-14T07:00:00,prt,65.77
2023-11-14T07:01:00,prt,71.70
2023-11-14T07:02:00,prt,70.02
2023-11-14T07:03:00,prt,67.96
2023-11-14T07:04:00,prt,68.53
2023-11-14T07:05:00,prt,68.47
2023-11-14T07:06:00,prt,76.31
2023-11-14T07:07:00,prt,76.50
2023-11-14T07:08:00,prt,86.76
2023-11-14T07:09:00,prt,81.47
2023-11-14T07:10:00,prt,79.74
2023-11-14T07:11:00,prt,73.25
2023-11-14T07:12:00,prt,69.81
2023-11-14T07:13:00,prt,70.34
2023-11-14T07:14:00,prt,80.83
2023-11-14T07:15:00,prt,83.21
2023-11-14T07:16:00,prt,86.44
2023-11-14T07:17:00,prt,86.59
2023-11-14T07:18:00,prt,84.01
2023-11-14T07:19:00,prt,87.94
2023-11-14T07:20:00,prt,93.91
2023-11-14T07:21:00,prt,91.90
2023-11-14T07:22:00,prt,90.68
2023-11-14T07:23:00,prt,77.21
2023-11-14T07:24:00,prt,75.73
2023-11-14T07:25:00,prt,75.78
2023-11-14T07:26:00,prt,85.31
2023-11-14T07:27:00,prt,85.83
2023-11-14T07:28:00,prt,73.50
2023-11-14T07:29:00,prt,75.86
2023-11-14T07:30:00,prt,83.19
2023-11-14T07:31:00,prt,90.73
2023-11-14T07:32:00,prt,93.84
2023-11-14T07:33:00,prt,98.08
2023-11-14T07:34:00,prt,96.53
2023-11-14T07:35:00,prt,96.28
2023-11-14T07:36:00,prt,73.35
2023-11-14T07:37:00,prt,81.36
2023-11-14T07:38:00,prt,74.73
2023-11-14T07:39:00,prt,71.31
2023-11-14T07:40:00,prt,70.47
2023-11-14T07:41:00,prt,77.47
2023-11-14T07:42:00,prt,79.57
2023-11-14T07:43:00,prt,73.96
2023-11-14T07:44:00,prt,65.89
2023-11-14T07:45:00,prt,84.05
2023-11-14T07:46:00,prt,80.04
2023-11-14T07:47:00,prt,83.35
2023-11-14T07:48:00,prt,69.77
2023-11-14T07:49:00,prt,88.19
2023-11-14T07:50:00,prt,77.91
2023-11-14T07:51:00,prt,88.18
2023-11-14T07:52:00,prt,76.81
2023-11-14T07:53:00,prt,86.75
2023-11-14T07:54:00,prt,88.58
2023-11-14T07:55:00,prt,71.46
2023-11-14T07:56:00,prt,85.94
2023-11-14T07:57:00,prt,84.96
2023-11-14T07:58:00,prt,78.62
2023-11-14T07:59:00,prt,85.17
2023-11-14T08:00:00,prt,92.21
2023-11-14T08:01:00,prt,82.82
2023-11-14T08:02:00,prt,89.19
2023-11-14T08:03:00,prt,86.36
2023-11-14T08:04:00,prt,70.70
2023-11-14T08:05:00,prt,79.60
2023-11-14T08:06:00,prt,85.31
2023-11-14T08:07:00,prt,85.81
2023-11-14T08:08:00,prt,80.19
2023-11-14T08:09:00,prt,93.81
2023-11-14T08:10:00,prt,84.06
2023-11-14T08:11:00,prt,84.02
2023-11-14T08:12:00,prt,99.41
2023-11-14T08:13:00,prt,91.88
2023-11-14T08:14:00,prt,100.53
2023-11-14T08:15:00,prt,96.25
2023-11-14T08:16:00,prt,92.69
2023-11-14T08:17:00,prt,88.69
2023-11-14T08:18:00,prt,79.59
2023-11-14T08:19:00,prt,88.55
2023-11-14T08:20:00,prt,92.43
2023-11-14T08:21:00,prt,81.96
2023-11-14T08:22:00,prt,74.34
2023-11-14T08:23:00,prt,76.30
2023-11-14T08:24:00,prt,92.17
2023-11-14T08:25:00,prt,92.65
2023-11-14T08:26:00,prt,96.64
2023-11-14T08:27:00,prt,101.36
2023-11-14T08:28:00,prt,85.82
2023-11-14T08:29:00,prt,86.85
2023-11-14T08:30:00,prt,100.05
2023-11-14T08:31:00,prt,92.44
2023-11-14T08:32:00,prt,86.41
2023-11-14T08:33:00,prt,94.87
2023-11-14T08:34:00,prt,88.09
2023-11-14T08:35:00,prt,80.75
2023-11-14T08:36:00,prt,91.53
2023-11-14T08:37:00,prt,101.14
2023-11-14T08:38:00,prt,94.04
2023-11-14T08:39:00,prt,104.42
2023-11-14T08:40:00,prt,100.89
2023-11-14T08:41:00,prt,92.94
2023-11-14T08:42:00,prt,93.77
2023-11-14T08:43:00,prt,92.27
2023-11-14T08:44:00,prt,79.11
2023-11-14T08:45:00,prt,95.95
2023-11-14T08:46:00,prt,89.44
2023-11-14T08:47:00,prt,92.16
2023-11-14T08:48:00,prt,89.54
2023-11-14T08:49:00,prt,95.96
2023-11-14T08:50:00,prt,103.99
2023-11-14T08:51:00,prt,92.51
2023-11-14T08:52:00,prt,83.31
2023-11-14T08:53:00,prt,94.50
2023-11-14T08:54:00,prt,72.82
2023-11-14T08:55:00,prt,79.00
2023-11-14T08:56:00,prt,82.94
2023-11-14T08:57:00,prt,89.65
2023-11-14T08:58:00,prt,74.75
2023-11-14T08:59:00,prt,84.96
2023-11-14T09:00:00,prt,90.53
2023-11-14T09:01:00,prt,84.46
2023-11-14T09:02:00,prt,84.70
2023-11-14T09:03:00,prt,104.03
2023-11-14T09:04:00,prt,96.32
2023-11-14T09:05:00,prt,88.98
2023-11-14T09:06:00,prt,96.60
2023-11-14T09:07:00,prt,85.77
2023-11-14T09:08:00,prt,88.06
2023-11-14T09:09:00,prt,95.12
2023-11-14T09:10:00,prt,87.47
2023-11-14T09:11:00,prt,86.78
2023-11-14T09:12:00,prt,94.58
2023-11-14T09:13:00,prt,84.23
2023-11-14T09:14:00,prt,83.77
2023-11-14T09:15:00,prt,93.09
2023-11-14T09:16:00,prt,87.77
2023-11-14T09:17:00,prt,99.00
2023-11-14T09:18:00,prt,82.27
2023-11-14T09:19:00,prt,86.48
2023-11-14T09:20:00,prt,109.53
2023-11-14T09:21:00,prt,101.68
2023-11-14T09:22:00,prt,87.24
2023-11-14T09:23:00,prt,81.53
2023-11-14T09:24:00,prt,94.93
2023-11-14T09:25:00,prt,88.29
2023-11-14T09:26:00,prt,87.00
2023-11-14T09:27:00,prt,93.65
2023-11-14T09:28:00,prt,87.12
2023-11-14T09:29:00,prt,86.29
2023-11-14T09:30:00,prt,99.24
2023-11-14T09:31:00,prt,96.80
2023-11-14T09:32:00,prt,85.73
2023-11-14T09:33:00,prt,95.24
2023-11-14T09:34:00,prt,90.69
2023-11-14T09:35:00,prt,94.45
2023-11-14T09:36:00,prt,105.74
2023-11-14T09:37:00,prt,90.57
2023-11-14T09:38:00,prt,95.51
2023-11-14T09:39:00,prt,99.37
2023-11-14T09:40:00,prt,90.52
2023-11-14T09:41:00,prt,90.27
2023-11-14T09:42:00,prt,96.13
2023-11-14T09:43:00,prt,98.56
2023-11-14T09:44:00,prt,92.13
2023-11-14T09:45:00,prt,91.40
2023-11-14T09:46:00,prt,84.79
2023-11-14T09:47:00,prt,87.57
2023-11-14T09:48:00,prt,91.64
2023-11-14T09:49:00,prt,103.01
2023-11-14T09:50:00,prt,98.78
2023-11-14T09:51:00,prt,98.74
2023-11-14T09:52:00,prt,101.64
2023-11-14T09:53:00,prt,95.56
2023-11-14T09:54:00,prt,95.09
2023-11-14T09:55:00,prt,97.44
2023-11-14T09:56:00,prt,87.36
2023-11-14T09:57:00,prt,94.39
2023-11-14T09:58:00,prt,93.32
2023-11-14T09:59:00,prt,86.91
2023-11-14T10:00:00,prt,85.39
2023-11-14T10:01:00,prt,100.78
2023-11-14T10:02:00,prt,88.31
2023-11-14T10:03:00,prt,93.99
2023-11-14T10:04:00,prt,100.37
2023-11-14T10:05:00,prt,91.78
2023-11-14T10:06:00,prt,84.19
2023-11-14T10:07:00,prt,93.39
2023-11-14T10:08:00,prt,101.23
2023-11-14T10:09:00,prt,89.61
2023-11-14T10:10:00,prt,90.10
2023-11-14T10:11:00,prt,97.45
2023-11-14T10:12:00,prt,86.28
2023-11-14T10:13:00,prt,97.83
2023-11-14T10:14:00,prt,84.56
2023-11-14T10:15:00,prt,84.49
2023-11-14T10:16:00,prt,89.55
2023-11-14T10:17:00,prt,92.13
2023-11-14T10:18:00,prt,93.82
2023-11-14T10:19:00,prt,88.64
2023-11-14T10:20:00,prt,102.90
2023-11-14T10:21:00,prt,91.29
2023-11-14T10:22:00,prt,92.38
2023-11-14T10:23:00,prt,103.10
2023-11-14T10:24:00,prt,87.18
2023-11-14T10:25:00,prt,85.74
2023-11-14T10:26:00,prt,97.66
2023-11-14T10:27:00,prt,86.22
2023-11-14T10:28:00,prt,83.84
2023-11-14T10:29:00,prt,98.82
2023-11-14T10:30:00,prt,89.82
2023-11-14T10:31:00,prt,91.99
2023-11-14T10:32:00,prt,103.27
2023-11-14T10:33:00,prt,99.47
2023-11-14T10:34:00,prt,93.51
2023-11-14T10:35:00,prt,94.31
2023-11-14T10:36:00,prt,102.62
2023-11-14T10:37:00,prt,92.70
2023-11-14T10:38:00,prt,94.63
2023-11-14T10:39:00,prt,87.06
2023-11-14T10:40:00,prt,89.10
2023-11-14T10:41:00,prt,115.17
2023-11-14T10:42:00,prt,101.01
2023-11-14T10:43:00,prt,89.49
2023-11-14T10:44:00,prt,100.00
2023-11-14T10:45:00,prt,100.15
2023-11-14T10:46:00,prt,97.40
2023-11-14T10:47:00,prt,97.36
2023-11-14T10:48:00,prt,106.10
2023-11-14T10:49:00,prt,95.35
2023-11-14T10:50:00,prt,93.56
2023-11-14T10:51:00,prt,99.65
2023-11-14T10:52:00,prt,90.52
2023-11-14T10:53:00,prt,85.59
2023-11-14T10:54:00,prt,102.08
2023-11-14T10:55:00,prt,97.45
2023-11-14T10:56:00,prt,95.20
2023-11-14T10:57:00,prt,105.60
2023-11-14T10:58:00,prt,94.44
2023-11-14T10:59:00,prt,94.42
2023-11-14T11:00:00,prt,95.97
2023-11-14T11:01:00,prt,97.54
2023-11-14T11:02:00,prt,97.52
2023-11-14T11:03:00,prt,88.37
2023-11-14T11:04:00,prt,93.93
2023-11-14T11:05:00,prt,89.14
2023-11-14T11:06:00,prt,86.42
2023-11-14T11:07:00,prt,85.51
2023-11-14T11:08:00,prt,89.70
2023-11-14T11:09:00,prt,94.00
2023-11-14T11:10:00,prt,93.06
2023-11-14T11:11:00,prt,93.15
2023-11-14T11:12:00,prt,97.26
2023-11-14T11:13:00,prt,99.19
2023-11-14T11:14:00,prt,97.94
2023-11-14T11:15:00,prt,102.89
2023-11-14T11:16:00,prt,99.24
2023-11-14T11:17:00,prt,102.10
2023-11-14T11:18:00,prt,93.90
2023-11-14T11:19:00,prt,100.80
2023-11-14T11:20:00,prt,94.64
2023-11-14T11:21:00,prt,99.01
2023-11-14T11:22:00,prt,87.61
2023-11-14T11:23:00,prt,90.50
2023-11-14T11:24:00,prt,88.64
2023-11-14T11:25:00,prt,105.06
2023-11-14T11:26:00,prt,117.46
2023-11-14T11:27:00,prt,103.29
2023-11-14T11:28:00,prt,109.70
2023-11-14T11:29:00,prt,107.82
2023-11-14T11:30:00,prt,104.28
2023-11-14T11:31:00,prt,98.53
2023-11-14T11:32:00,prt,107.24
2023-11-14T11:33:00,prt,104.63
2023-11-14T11:34:00,prt,108.06
2023-11-14T11:35:00,prt,108.80
2023-11-14T11:36:00,prt,110.58
2023-11-14T11:37:00,prt,112.13
2023-11-14T11:38:00,prt,105.14
2023-11-14T11:39:00,prt,100.92
2023-11-14T11:40:00,prt,93.34
2023-11-14T11:41:00,prt,98.80
2023-11-14T11:42:00,prt,99.83
2023-11-14T11:43:00,prt,99.89
2023-11-14T11:44:00,prt,97.76
2023-11-14T11:45:00,prt,90.02
2023-11-14T11:46:00,prt,88.81
2023-11-14T11:47:00,prt,90.60
2023-11-14T11:48:00,prt,87.91
2023-11-14T11:49:00,prt,92.27
2023-11-14T11:50:00,prt,86.31
2023-11-14T11:51:00,prt,93.25
2023-11-14T11:52:00,prt,102.72
2023-11-14T11:53:00,prt,84.56
2023-11-14T11:54:00,prt,89.03
2023-11-14T11:55:00,prt,89.51
2023-11-14T11:56:00,prt,92.44
2023-11-14T11:57:00,prt,101.55
2023-11-14T11:58:00,prt,98.39
2023-11-14T11:59:00,prt,99.40
2023-11-14T12:00:00,prt,88.96
2023-11-14T12:01:00,prt,88.75
2023-11-14T12:02:00,prt,88.34
2023-11-14T12:03:00,prt,88.06
2023-11-14T12:04:00,prt,92.73
2023-11-14T12:05:00,prt,91.41
2023-11-14T12:06:00,prt,93.02
2023-11-14T12:07:00,prt,86.85
2023-11-14T12:08:00,prt,85.66
2023-11-14T12:09:00,prt,87.40
2023-11-14T12:10:00,prt,100.04
2023-11-14T12:11:00,prt,91.31
2023-11-14T12:12:00,prt,90.39
2023-11-14T12:13:00,prt,99.99
2023-11-14T12:14:00,prt,96.05
2023-11-14T12:15:00,prt,100.25
2023-11-14T12:16:00,prt,96.95
2023-11-14T12:17:00,prt,93.99
2023-11-14T12:18:00,prt,105.33
2023-11-14T12:19:00,prt,98.77
2023-11-14T12:20:00,prt,96.10
2023-11-14T12:21:00,prt,89.45
2023-11-14T12:22:00,prt,97.99
2023-11-14T12:23:00,prt,95.74
2023-11-14T12:24:00,prt,91.75
2023-11-14T12:25:00,prt,96.80
2023-11-14T12:26:00,prt,105.06
2023-11-14T12:27:00,prt,99.73
2023-11-14T12:28:00,prt,95.98
2023-11-14T12:29:00,prt,99.91
2023-11-14T12:30:00,prt,97.54
2023-11-14T12:31:00,prt,100.78
2023-11-14T12:32:00,prt,101.12
2023-11-14T12:33:00,prt,92.86
2023-11-14T12:34:00,prt,92.92
2023-11-14T12:35:00,prt,97.84
2023-11-14T12:36:00,prt,98.63
2023-11-14T12:37:00,prt,92.13
2023-11-14T12:38:00,prt,94.52
2023-11-14T12:39:00,prt,92.85
2023-11-14T12:40:00,prt,92.66
2023-11-14T12:41:00,prt,93.82
2023-11-14T12:42:00,prt,86.50
2023-11-14T12:43:00,prt,90.78
2023-11-14T12:44:00,prt,85.65
2023-11-14T12:45:00,prt,93.07
2023-11-14T12:46:00,prt,89.56
2023-11-14T12:47:00,prt,86.70
2023-11-14T12:48:00,prt,82.30
2023-11-14T12:49:00,prt,84.23
2023-11-14T12:50:00,prt,83.97
2023-11-14T12:51:00,prt,94.61
2023-11-14T12:52:00,prt,87.73
2023-11-14T12:53:00,prt,90.35
2023-11-14T12:54:00,prt,94.83
2023-11-14T12:55:00,prt,89.63
2023-11-14T12:56:00,prt,88.39
2023-11-14T12:57:00,prt,88.28
2023-11-14T12:58:00,prt,92.19
2023-11-14T12:59:00,prt,92.31
2023-11-14T13:00:00,prt,84.63
2023-11-14T13:01:00,prt,87.29
2023-11-14T13:02:00,prt,86.44
2023-11-14T13:03:00,prt,88.77
2023-11-14T13:04:00,prt,91.05
2023-11-14T13:05:00,prt,87.69
2023-11-14T13:06:00,prt,89.95
2023-11-14T13:07:00,prt,96.48
2023-11-14T13:08:00,prt,96.60
2023-11-14T13:09:00,prt,91.34
2023-11-14T13:10:00,prt,96.99
2023-11-14T13:11:00,prt,91.97
2023-11-14T13:12:00,prt,88.88
2023-11-14T13:13:00,prt,84.09
2023-11-14T13:14:00,prt,86.81
2023-11-14T13:15:00,prt,87.97
2023-11-14T13:16:00,prt,94.48